metlocid,date_time,avg_airt3m,std_airt3m,min_airt3m,max_airt3m,n_airt3m,avg_airt1m,stddev_airt1m,min_airt1m,max_airt1m,n_airt1m,n_comments
COHM,11/1/93,-7.657826085,1.226858582,-10.4,-5.08,69,,,,,0,0
COHM,12/1/93,-6.44548272,2.774510516,-11.85,0.69,1388,,,,,0,5
COHM,1/1/94,-3.398724344,2.237585627,-12.57,4.02,682,,,,,0,0
COHM,2/1/94,-13.07446511,4.564584146,-22.66,-4.23,215,,,,,0,0
COHM,3/1/94,-22.90911291,3.621767209,-31,-13.82,248,,,,,0,0
COHM,4/1/94,-19.01620832,5.115520254,-31.34,-9.44,240,,,,,0,0
COHM,5/1/94,-28.84825205,4.74555014,-38.13,-16.81,246,,,,,0,0
COHM,6/1/94,-23.87800004,5.435578408,-36.51,-12.25,240,,,,,0,0
COHM,7/1/94,-25.39834672,7.235145581,-38.1,-5.82,248,,,,,0,0
COHM,8/1/94,-28.75681451,5.78371267,-38.82,-14.04,248,,,,,0,0
COHM,9/1/94,-28.16308832,6.653203907,-38.55,-15.59,68,,,,,0,0
COHM,11/1/94,-12.09987729,2.010242342,-16.82,-4.22,978,,,,,0,5
COHM,12/1/94,-5.729242833,2.350450084,-13.46,1.16,2232,,,,,0,1
COHM,1/1/95,-5.853454467,1.932314128,-11.29,1.07,2229,,,,,0,0
COHM,2/1/95,-9.719315474,4.422420049,-19.87,2.1,2016,,,,,0,0
COHM,3/1/95,-20.62551773,4.840188487,-31.22,-8.69,2231,,,,,0,0
COHM,4/1/95,-25.98479171,6.145491722,-37.84,-10.84,2160,,,,,0,0
COHM,5/1/95,-26.9279122,5.512855937,-37.47,-11.79,2232,,,,,0,0
COHM,6/1/95,-24.38255556,5.783512016,-35.27,-5.87,2160,,,,,0,0
COHM,7/1/95,-25.8248432,4.166597514,-34.19,-10.37,2232,,,,,0,0
COHM,8/1/95,-24.95079303,5.785364163,-35.95,-7.26,2232,,,,,0,0
COHM,9/1/95,-25.75700465,7.687144748,-39.98,-11.36,2160,,,,,0,0
COHM,10/1/95,-18.96030017,4.363318767,-29.38,-8.54,2232,,,,,0,0
COHM,11/1/95,-9.703099599,5.249887694,-26.55,1.36,2239,,,,,0,0
COHM,12/1/95,-3.42816251,2.422215955,-9.96,6.03,2966,,,,,0,0
COHM,1/1/96,-4.774700742,2.296979422,-10.75,4,2974,,,,,0,0
COHM,2/1/96,-9.483951143,5.10084173,-20.95,3.45,2784,,,,,0,0
COHM,3/1/96,-18.19162299,4.945179478,-28.04,1.3,2976,,,,,0,0
COHM,4/1/96,-18.50892014,5.431461055,-29.67,-4.23,2880,,,,,0,0
COHM,5/1/96,-24.6244859,5.694825311,-36.06,-11.11,2976,,,,,0,0
COHM,6/1/96,-25.48510416,5.410756332,-35.67,-9.14,2880,,,,,0,0
COHM,7/1/96,-25.98986224,5.460875857,-37.65,-9.58,2976,,,,,0,0
COHM,8/1/96,-20.22650872,6.484921536,-33.93,-0.39,2976,,,,,0,0
COHM,9/1/96,-24.02986458,3.164989249,-32.18,-13.84,2880,,,,,0,0
COHM,10/1/96,-20.64048053,4.634705352,-31.7,-9.51,2976,,,,,0,0
COHM,11/1/96,-12.690771,5.343932751,-24.33,1.72,1310,,,,,0,1569
COHM,12/1/96,-3.430954909,2.108289985,-9.94,6.31,2639,,,,,0,336
COHM,1/1/97,-4.744962494,2.451006682,-9.94,5.06,2533,,,,,0,0
COHM,5/1/97,-21.5619359,4.309325685,-29.64,-8.64,749,,,,,0,0
COHM,6/1/97,-23.38798767,5.028073675,-35.05,-9.64,1784,,,,,0,0
COHM,11/1/97,-6.509045806,2.975976008,-12.61,-0.39,524,,,,,0,0
COHM,12/1/97,-5.756360883,3.216610805,-13.07,2.92,2976,,,,,0,0
COHM,1/1/98,-6.030341676,2.486474719,-13.22,0.74,2956,,,,,0,0
COHM,2/1/98,-9.697072176,3.574998153,-18.63,0.74,2688,,,,,0,0
COHM,3/1/98,-19.85180444,4.081794887,-32.32,-10.12,2976,,,,,0,0
COHM,4/1/98,-27.40188541,5.739635704,-38.76,-10.82,2880,,,,,0,0
COHM,5/1/98,-23.92932458,5.740204497,-35.91,-6.62,2976,,,,,0,0
COHM,6/1/98,-18.73322916,4.375489104,-32.03,-8.23,2880,,,,,0,0
COHM,7/1/98,-25.26993951,5.72021475,-35.94,-11.47,2976,,,,,0,0
COHM,8/1/98,-25.2230847,5.401378589,-35.76,-11.98,2976,,,,,0,0
COHM,9/1/98,-28.58847917,6.142662583,-37.61,-5.51,2880,,,,,0,0
COHM,10/1/98,-18.11415236,5.273170834,-27.94,-4.21,2796,,,,,0,0
COHM,11/1/98,-10.45297905,2.996272598,-18.47,-0.1,1910,,,,,0,0
COHM,12/1/98,-4.9422211,3.046388069,-13.75,3.48,2976,,,,,0,0
COHM,1/1/99,-3.696612902,2.384055216,-9.41,4.39,2976,,,,,0,0
COHM,2/1/99,-10.72807663,4.521098706,-22.21,-0.57,2688,,,,,0,0
COHM,3/1/99,-19.88872311,4.22868524,-29.03,-8.82,2976,,,,,0,0
COHM,4/1/99,-25.67698958,5.654632086,-35.05,-9.94,2880,,,,,0,0
COHM,5/1/99,-26.02339046,5.949416753,-39.07,-10.44,2976,,,,,0,0
COHM,6/1/99,-22.39068751,5.532576161,-33.38,-7.82,2880,,,,,0,0
COHM,7/1/99,-22.31168346,6.572755388,-35.8,-9.64,2976,,,,,0,0
COHM,8/1/99,-27.39865926,5.121370954,-36.47,-12.92,2976,,,,,0,0
COHM,9/1/99,-21.23438195,5.479003533,-33.73,-4.12,2880,,,,,0,0
COHM,10/1/99,-17.53820564,4.35796262,-29.33,-3.97,2976,,,,,0,0
COHM,11/1/99,-8.841503477,3.701530648,-19.3,-0.01,2880,,,,,0,0
COHM,12/1/99,-5.009586697,1.673967421,-10.08,-0.55,2976,,,,,0,0
COHM,1/1/00,-5.751293682,2.256431972,-14.16,0.29,2976,,,,,0,0
COHM,2/1/00,-11.42702945,3.48813587,-21.32,-2.08,2784,,,,,0,0
COHM,3/1/00,-17.35868615,3.875772644,-27.98,-6.07,2976,,,,,0,0
COHM,4/1/00,-20.36798611,5.237564253,-31.7,-4.43,2880,,,,,0,0
COHM,5/1/00,-23.6612668,6.154458009,-37.98,-9.41,2976,,,,,0,0
COHM,6/1/00,-24.5123507,7.424089641,-36.8,-3.53,2880,,,,,0,0
COHM,7/1/00,-23.86660279,6.601163647,-38.47,-7.53,2976,,,,,0,0
COHM,8/1/00,-25.33016126,6.17402479,-35.57,-8.85,2976,,,,,0,0
COHM,9/1/00,-24.85855553,6.75166972,-37.72,-8.1,2880,,,,,0,0
COHM,10/1/00,-21.78365594,5.107847792,-32.87,-7.7,2976,,,,,0,0
COHM,11/1/00,-8.561041662,5.085497979,-25.56,0.96,2880,,,,,0,0
COHM,12/1/00,-6.091286969,1.791491371,-10.43,-0.35,2976,,,,,0,0
COHM,1/1/01,-7.648904573,2.172581553,-13.1,0.27,2976,,,,,0,0
COHM,2/1/01,-9.446469493,3.007816109,-18.48,2.55,2688,,,,,0,0
COHM,3/1/01,-20.49279571,4.921215584,-28.64,-1.81,2976,,,,,0,0
COHM,4/1/01,-22.86773611,5.314196074,-33.22,-8.1,2880,,,,,0,0
COHM,5/1/01,-23.11455644,6.916092521,-34.41,-6.07,2976,,,,,0,0
COHM,6/1/01,-22.22597222,6.125670318,-33.82,-6.8,2880,,,,,0,0
COHM,7/1/01,-23.5097984,5.676182757,-37.21,-9.1,2976,,,,,0,0
COHM,8/1/01,-30.9534207,5.139693727,-41.93,-18.34,2976,,,,,0,0
COHM,9/1/01,-23.43142361,5.346708538,-36.61,-8.72,2880,,,,,0,0
COHM,10/1/01,-19.27383063,5.607009432,-30.03,-5.89,2976,,,,,0,0
COHM,11/1/01,-10.20533357,3.836151127,-21.31,-0.85,2878,,,,,0,2
COHM,12/1/01,-2.829092744,3.192557247,-11.77,6.51,2976,,,,,0,0
COHM,1/1/02,-2.860638443,3.284764158,-10.05,7.76,2976,,,,,0,0
COHM,2/1/02,-9.269784228,3.856019153,-17.37,-0.51,2688,,,,,0,0
COHM,3/1/02,-17.16609206,4.370637323,-27.85,-8.31,2976,,,,,0,0
COHM,4/1/02,-22.23184028,5.191535419,-30.99,-8.24,2880,,,,,0,0
COHM,5/1/02,-19.94194892,5.653800412,-32.48,-5.36,2976,,,,,0,0
COHM,6/1/02,-28.36842012,6.074831742,-38.49,-10.18,2880,,,,,0,0
COHM,7/1/02,-27.67478494,4.629753607,-39.13,-14.75,2976,,,,,0,0
COHM,8/1/02,-29.63537296,5.683633632,-40.94,-12.47,2976,,,,,0,0
COHM,9/1/02,-22.39762151,5.245968543,-32.92,-6.27,2880,,,,,0,0
COHM,10/1/02,-18.43220767,3.646412102,-27.74,-7.23,2976,,,,,0,0
COHM,11/1/02,-12.52957292,2.525424601,-18.85,-2.78,2880,,,,,0,0
COHM,12/1/02,-6.52823193,2.919449145,-15.31,1.62,2975,,,,,0,1
COHM,1/1/03,-3.497631048,2.94376817,-10.13,4.22,2976,,,,,0,0
COHM,2/1/03,-9.81863095,2.721774298,-16.25,-1.66,2688,,,,,0,0
COHM,3/1/03,-18.94556116,4.821549289,-29.22,-7.45,2976,,,,,0,0
COHM,4/1/03,-23.36723958,4.319745321,-30.55,-5.12,2880,,,,,0,0
COHM,5/1/03,-20.35986895,6.4514516,-30.91,-1.99,2976,,,,,0,0
COHM,6/1/03,-23.9976875,4.65759289,-33.54,-9.92,2880,,,,,0,0
COHM,7/1/03,-23.03782258,4.633332489,-39.27,-12.49,2976,,,,,0,0
COHM,8/1/03,-28.21890455,4.305881597,-36.29,-14.96,2976,,,,,0,0
COHM,9/1/03,-23.53472917,6.070655179,-35.05,-11.29,2880,,,,,0,0
COHM,10/1/03,-17.18761425,3.676397532,-28.53,-7.49,2976,,,,,0,0
COHM,11/1/03,-11.74030903,2.967791497,-20,-1.25,2880,,,,,0,0
COHM,12/1/03,-4.114012099,2.96283728,-11.35,5.82,2976,,,,,0,0
COHM,1/1/04,-5.658716398,2.738984973,-12.65,5.09,2976,,,,,0,0
COHM,2/1/04,-11.16533046,3.078843589,-19.3,-3.21,2784,,,,,0,0
COHM,3/1/04,-22.34159946,4.278764194,-30.71,-11.07,2976,,,,,0,0
COHM,4/1/04,-21.8429757,4.383892921,-32.99,-11.92,2880,,,,,0,0
COHM,5/1/04,-25.70790991,6.375905334,-36.35,-5.84,2976,,,,,0,0
COHM,6/1/04,-23.06090971,6.36770272,-38.28,-4.43,2880,,,,,0,0
COHM,7/1/04,-33.88717743,5.025477786,-44.83,-11.86,2976,,,,,0,0
COHM,8/1/04,-28.61043683,4.877851655,-38.26,-9.64,2976,,,,,0,0
COHM,9/1/04,-26.36621876,4.335335491,-36.65,-14.32,2880,,,,,0,0
COHM,10/1/04,-19.02182124,5.271723154,-34.63,-6.9,2976,,,,,0,0
COHM,11/1/04,-8.524545138,4.157819365,-18.44,1.02,2880,,,,,0,0
COHM,12/1/04,-3.089842068,1.775652874,-10.29,6.55,2976,,,,,0,0
COHM,1/1/05,-4.177506725,2.877300472,-12.45,5.29,2976,,,,,0,0
COHM,2/1/05,-10.66011905,3.915479825,-21.7,-1.1,2688,,,,,0,0
COHM,3/1/05,-19.05563172,3.134982685,-26.6,-8.17,2976,,,,,0,0
COHM,4/1/05,-24.64889236,4.745421294,-35.21,-14.07,2880,,,,,0,0
COHM,5/1/05,-21.76341731,5.507992109,-34.21,-9,2976,,,,,0,0
COHM,6/1/05,-25.93575693,6.079554643,-38.34,-5.6,2880,,,,,0,0
COHM,7/1/05,-25.31436156,6.720434702,-38.36,-5.24,2976,,,,,0,0
COHM,8/1/05,-28.39878358,6.41701118,-45.03,-10.72,2976,,,,,0,0
COHM,9/1/05,-23.31212152,6.103848006,-35.48,-5.37,2880,,,,,0,0
COHM,10/1/05,-18.16649865,6.029570694,-31.31,-5.72,2976,,,,,0,0
COHM,11/1/05,-10.46475,2.763963914,-17.84,-3.51,2880,,,,,0,0
COHM,12/1/05,-3.378672718,1.994908382,-11.17,3.16,2976,,,,,0,0
COHM,1/1/06,-4.498191598,2.174763556,-10.2,4.85,2975,,,,,0,0
COHM,2/1/06,-10.05041294,2.898105305,-19.31,-3.85,2688,,,,,0,0
COHM,3/1/06,-18.81743615,3.320268995,-26.7,-8.88,2976,,,,,0,0
COHM,4/1/06,-25.5714861,4.667106676,-37.26,-14.25,2880,,,,,0,0
COHM,5/1/06,-27.99966395,7.299444941,-39.5,-4.2,2976,,,,,0,0
COHM,6/1/06,-22.65727083,7.809401582,-36.79,-5.77,2880,,,,,0,0
COHM,7/1/06,-29.58464045,4.16810498,-38.65,-14.23,2976,,,,,0,0
COHM,8/1/06,-19.96466397,4.906558764,-29.49,-7.62,2976,,,,,0,0
COHM,9/1/06,-23.29969792,6.862854475,-34.94,-7.15,2880,,,,,0,0
COHM,10/1/06,-20.68763777,4.196170266,-31.43,-8.93,2976,,,,,0,0
COHM,11/1/06,-10.53423611,4.676006245,-22.66,-1.54,2880,,,,,0,0
COHM,12/1/06,-6.530104168,2.806573356,-12.79,1.16,2976,,,,,0,0
COHM,1/1/07,-2.197056453,1.88379485,-7.45,4.68,2976,,,,,0,0
COHM,2/1/07,-11.54388766,4.505396086,-22.14,-2.02,2688,,,,,0,0
COHM,3/1/07,-18.72905241,4.941749895,-28.71,-4.99,2976,,,,,0,0
COHM,4/1/07,-22.8869132,5.482464241,-34.25,-9.38,2880,,,,,0,0
COHM,5/1/07,-19.68206315,6.006764781,-32.29,-7,2976,,,,,0,0
COHM,6/1/07,-21.26314932,6.414442428,-35.48,-5.13,2880,,,,,0,0
COHM,7/1/07,-23.36749664,5.711753866,-35.44,-7.15,2976,,,,,0,0
COHM,8/1/07,-23.91017808,5.620677463,-34.86,-4.38,2976,,,,,0,0
COHM,9/1/07,-21.69273612,4.199669576,-31,-6.61,2880,,,,,0,0
COHM,10/1/07,-20.72902219,4.828633125,-34.79,-10.04,2976,,,,,0,0
COHM,11/1/07,-11.09464583,4.984892219,-27.76,-1.67,2880,,,,,0,0
COHM,12/1/07,-4.610325943,3.635291842,-14.26,4.24,2976,,,,,0,0
COHM,1/1/08,-4.378649194,2.51841696,-11.27,3.38,2976,,,,,0,0
COHM,2/1/08,-12.37531969,3.546425504,-20.76,-3.38,2784,,,,,0,0
COHM,3/1/08,-17.89648858,6.006048909,-30.39,-1.11,2976,,,,,0,0
COHM,4/1/08,-19.54947918,4.645403243,-28.7,-7.61,2880,,,,,0,0
COHM,5/1/08,-23.72068549,5.309627899,-33.46,-7.03,2976,,,,,0,0
COHM,6/1/08,-19.22022568,5.612465833,-31.13,-5.18,2880,,,,,0,0
COHM,7/1/08,-27.78051411,5.756974575,-36.53,-10.86,2976,,,,,0,0
COHM,8/1/08,-31.07572244,4.717295882,-42.86,-14.42,2976,,,,,0,0
COHM,9/1/08,-20.25309027,5.596314376,-38.14,-8.67,2880,,,,,0,0
COHM,10/1/08,-18.5675336,3.710219641,-27.65,-9.64,2976,,,,,0,0
COHM,11/1/08,-12.19923611,3.863660759,-20.76,-1.97,2880,,,,,0,0
COHM,12/1/08,-4.214969755,2.573300412,-11.43,3.42,2976,,,,,0,0
COHM,1/1/09,-4.458981858,2.227567885,-9.72,5.42,2976,,,,,0,0
COHM,2/1/09,-12.92946801,5.063444056,-23.87,-1.93,2688,,,,,0,0
COHM,3/1/09,-20.4282359,4.317729595,-30.19,-7.38,2976,,,,,0,0
COHM,4/1/09,-19.0092153,4.612349951,-29.92,-7.21,2880,,,,,0,0
COHM,5/1/09,-24.1830074,6.629573861,-36.79,-9.21,2976,,,,,0,0
COHM,6/1/09,-23.48876735,6.57447319,-38.66,-7.38,2880,,,,,0,0
COHM,7/1/09,-24.56989584,6.582769678,-36.04,-7.9,2976,,,,,0,0
COHM,8/1/09,-26.29777552,6.379290944,-38.24,-11.28,2976,,,,,0,0
COHM,9/1/09,-24.55128126,6.667132983,-40.36,-4.63,2880,,,,,0,0
COHM,10/1/09,-20.73359207,3.895233127,-32.53,-6.86,2976,,,,,0,0
COHM,11/1/09,-8.348406256,4.483747427,-19.01,2.22,2880,,,,,0,0
COHM,12/1/09,-4.769102824,2.20164184,-10.25,3.28,2976,,,,,0,0
COHM,1/1/10,-4.910302425,2.075780312,-10.69,3.2,2976,,,,,0,0
COHM,2/1/10,-10.7238951,3.856376936,-21.75,-1.06,2688,,,,,0,0
COHM,3/1/10,-17.50226815,5.444675498,-32.83,-5.45,2976,,,,,0,0
COHM,4/1/10,-20.74048959,4.07649554,-30.71,-9.82,2880,,,,,0,0
COHM,5/1/10,-23.83394825,6.622561013,-38.5,-11.32,2976,,,,,0,0
COHM,6/1/10,-24.38269444,4.669200694,-32.25,-9.04,2880,,,,,0,0
COHM,7/1/10,-27.29501345,5.592801553,-44.14,-14.29,2976,,,,,0,0
COHM,8/1/10,-26.74203628,5.445517323,-38.06,-11.5,2976,,,,,0,0
COHM,9/1/10,-26.72017359,5.486873942,-37.87,-14.91,2880,,,,,0,0
COHM,10/1/10,-18.10973118,3.766089036,-27.55,-3.91,2976,,,,,0,0
COHM,11/1/10,-9.3681493,2.875486581,-18.9,1.74,2880,,,,,0,0
COHM,12/1/10,-3.338991937,3.192454738,-13.96,6.69,2976,,,,,0,0
COHM,1/1/11,-5.725332662,3.010345132,-12.98,2.1,2976,,,,,0,0
COHM,2/1/11,-10.12582961,2.43054953,-16.59,-2.19,2688,,,,,0,0
COHM,3/1/11,-18.62561828,3.883605586,-28.1,-8.8,2976,,,,,0,0
COHM,4/1/11,-21.10406597,6.479154388,-33.17,-3.9,2880,,,,,0,0
COHM,5/1/11,-22.46819894,5.318063185,-33.64,-9.21,2976,,,,,0,0
COHM,6/1/11,-21.28643402,6.815172816,-33.65,-6.74,2880,,,,,0,0
COHM,7/1/11,-19.60441868,6.060925013,-36.06,-5.58,2976,,,,,0,0
COHM,8/1/11,-20.70221772,7.494357205,-35.32,-5.03,2976,,,,,0,0
COHM,9/1/11,-23.79009027,7.726768524,-38.02,-8.78,2880,,,,,0,0
COHM,10/1/11,-18.8670867,4.726916741,-29.6,-5.26,2976,,,,,0,0
COHM,11/1/11,-8.469017356,3.074969796,-23.25,0.06,2880,,,,,0,0
COHM,12/1/11,-4.524247311,2.743262761,-10.47,5.12,2976,,,,,0,0
COHM,1/1/12,-5.367039537,2.568868992,-12.42,1.7,2959,-5.790843726,2.521897943,-12.88,0.82,2726,0
COHM,2/1/12,-9.661289512,4.306090907,-20.84,0.81,2784,-10.05543822,4.391654303,-21.59,0.06,2784,0
COHM,3/1/12,-18.16318887,4.294673869,-30.15,-7.96,2976,-19.09715724,4.291888003,-31.29,-8.4,2976,0
COHM,4/1/12,-21.6719757,5.263799035,-31.57,-5.79,2880,-22.64216318,5.379826066,-32.58,-6.39,2880,0
COHM,5/1/12,-18.31803763,6.209334057,-29.82,-4.52,2976,-18.86574261,6.33731499,-30.71,-5.03,2976,0
COHM,6/1/12,-25.02745139,5.532065464,-34.29,-9.05,2880,-25.96026737,5.456127031,-34.79,-9.64,2880,0
COHM,7/1/12,-26.69143482,4.266691187,-36.88,-16.02,2976,-27.74891801,4.244972698,-37.24,-16.6,2976,0
COHM,8/1/12,-25.83876344,6.450155788,-37.22,-10.56,2976,-26.62238575,6.5084363,-37.97,-11.1,2976,0
COHM,9/1/12,-23.34916667,4.625892643,-32.44,-13.23,2880,-24.36586806,4.651293357,-33.52,-14.11,2880,0
COHM,10/1/12,-18.33136761,3.045490947,-26.76,-10.01,2976,-19.07402217,3.193552506,-28.06,-10.73,2976,0
COHM,11/1/12,-11.07902431,3.790553862,-20.99,-0.84,2880,-11.40404861,3.959551905,-22.66,-1.31,2880,0
COHM,12/1/12,-3.638706316,2.343013382,-10.3,4.71,2976,-3.813487903,2.307092987,-11.47,3.27,2976,0
COHM,1/1/13,-4.586219759,2.151370228,-11.94,1.16,2976,-4.959089386,2.276695028,-12.65,1.1,2976,0
COHM,2/1/13,-11.49640253,3.155337235,-21.92,-3.09,2688,-12.19848586,3.225534173,-24.48,-3.34,2688,0
COHM,3/1/13,-17.80726478,6.042533735,-34.21,-6.25,2976,-18.81328629,6.039380251,-35.76,-6.65,2976,0
COHM,4/1/13,-25.57008681,4.754240671,-36.07,-10.97,2880,-27.05160068,4.868599007,-38.6,-11.85,2880,0
COHM,5/1/13,-21.55856518,5.855166699,-34.74,-8.01,2976,-22.58848118,6.058882249,-36.02,-8.32,2976,0
COHM,6/1/13,-23.39654514,6.753796529,-39.39,-9.34,2880,-24.66402083,6.780083079,-40.88,-10,2880,0
COHM,7/1/13,-27.92857861,4.212043581,-37.36,-12.84,2976,-29.16748317,4.231664908,-38.82,-13.13,2976,0
COHM,8/1/13,-24.69222109,5.671235374,-35.01,-3.82,2976,-26.02738577,5.677237898,-36.31,-5.09,2976,0
COHM,9/1/13,-19.92344792,5.662772441,-31.22,-2.77,2880,-20.95234028,5.702965119,-33.6,-3.73,2880,0
COHM,10/1/13,-18.1494758,4.150971639,-28.46,-6.94,2976,-19.20145833,4.340683142,-29.76,-7.74,2976,0
COHM,11/1/13,-11.05565972,5.236173726,-24.47,0.74,2880,-11.63069791,5.399344482,-24.78,0.01,2880,0
COHM,12/1/13,-4.19299731,1.994600449,-9.07,1.47,2976,-4.297617607,1.976242728,-8.95,1.14,2976,0
COHM,1/1/14,-3.131132393,2.487121576,-10.05,2.98,2976,-3.250574597,2.420321706,-10.25,2.15,2976,2683
COHM,2/1/14,-9.851547613,3.748695467,-16.77,-1.09,2688,-9.951573658,3.718223813,-16.91,-1.03,2688,2688
COHM,3/1/14,-19.32006722,4.340161843,-30.75,-9.4,2976,-19.65106519,4.391427369,-30.95,-9.82,2976,2976
COHM,4/1/14,-23.77934377,6.468790079,-36.9,-6.15,2880,-24.44648957,6.416338754,-37.55,-6.68,2880,2880
COHM,5/1/14,-20.01683469,7.134587352,-36.35,-7.18,2976,-20.84206989,7.295102911,-37.72,-7.56,2976,2976
COHM,6/1/14,-25.27734029,4.367570975,-33.4,-11.3,2880,-25.91072915,4.258515704,-33.94,-11.63,2880,2880
COHM,7/1/14,-30.1830544,6.707599607,-38.49,-7.2,2976,-31.07348117,6.687478798,-39.19,-7.63,2976,2976
COHM,8/1/14,-21.33688507,6.296852081,-37.5,-6.97,2976,-21.88543011,6.348498413,-38.01,-7.43,2976,2976
COHM,9/1/14,-18.64328473,5.161925544,-31.54,-6.73,2880,-19.36147223,5.115949853,-31.88,-7.09,2880,2880
COHM,10/1/14,-15.46398856,4.267569184,-28.91,-3.45,2976,-15.85984879,4.249792339,-29.23,-3.79,2976,2976
COHM,11/1/14,-11.4865231,3.07705082,-20.59,-2.66,2879,-11.66436958,3.154015789,-20.88,-3.04,2879,2879
COHM,12/1/14,-6.566344088,2.384935188,-13.65,0.64,2976,-6.646045026,2.355316181,-13.53,0.4,2976,2976
COHM,1/1/15,-4.233797043,2.23745701,-10.22,2.75,2976,-4.510897178,2.353505628,-12.02,2.47,2976,2976
COHM,2/1/15,-7.615941219,3.402471516,-16.22,0.51,2688,-7.950982147,3.475513537,-17.21,-0.09,2688,2688
COHM,3/1/15,-19.60198926,4.251801991,-28,-7.53,2976,-20.60847445,4.453735214,-29.02,-8.06,2976,2976
COHM,4/1/15,-26.36168266,3.718933684,-35.91,-16.52,2294,-27.67022668,3.921812282,-37.74,-17.77,2294,2294
COHM,5/1/15,-25.92221101,4.352043325,-34.24,-12.8,2976,-27.41020497,4.209193612,-35.38,-13.65,2976,2976
COHM,6/1/15,-24.57180209,4.455680123,-35.01,-12.4,2880,-25.6001111,4.567360802,-36.13,-13.02,2880,2880
COHM,7/1/15,-27.56887432,5.433910248,-38.41,-11.17,2976,-28.49502691,5.378435914,-39.22,-11.9,2976,2976
COHM,8/1/15,-26.19311492,5.925296708,-41.16,-11.3,2976,-27.13513441,5.886167924,-41.26,-11.64,2976,2976
COHM,9/1/15,-27.70381253,6.003185904,-40,-12.73,2678,-28.57469008,6.01748824,-40.32,-13.35,2678,2678
COHM,10/1/15,-17.24233534,4.123573711,-28.07,-5.59,2976,-17.64461357,4.096006233,-28.53,-6.13,2976,2976
COHM,11/1/15,-10.48493568,5.58926616,-24.79,0.14,2798,-10.45441744,5.658894976,-24.59,0.05,2798,557
COHM,12/1/15,-3.846022192,2.371585511,-8.78,5.57,2974,-3.739132482,2.310229579,-9.15,4.96,2974,0
COHM,1/1/16,-3.368172046,2.500772176,-10.42,3.25,2976,-3.333891132,2.448339721,-10.31,2.49,2976,0
COHM,2/1/16,-9.540578296,4.485035141,-19.57,1.67,2784,-9.652492817,4.562310505,-19.87,1.58,2784,0
COHM,3/1/16,-18.95030578,3.848667272,-31.27,-10.99,2976,-19.67129033,3.916542548,-31.9,-11.32,2976,0
COHM,4/1/16,-28.73502511,2.648723543,-34.71,-22.63,1194,-29.60477388,2.805293256,-35.16,-22.8,1194,0
COHM,5/1/16,-19.5414475,5.345416432,-28.09,-5.51,1209,-20.22839534,5.429200473,-29.07,-6.11,1209,0
COHM,6/1/16,-27.38686109,4.01806013,-37.64,-17.13,2880,-28.18532639,4.046670928,-38.71,-17.48,2880,0
COHM,7/1/16,-29.8473723,5.827581334,-38.88,-12.49,2976,-31.06602151,5.854513291,-40.13,-12.78,2976,0
COHM,8/1/16,-23.9293414,5.006506852,-38.44,-7.83,2976,-24.91909274,5.139521927,-38.25,-8.43,2976,0
COHM,9/1/16,-26.27435069,5.933666485,-37.15,-12.38,2880,-27.40361109,5.953725242,-37.7,-12.52,2880,0
COHM,10/1/16,-20.56632758,3.54993373,-29.79,-8.66,2949,-21.12069175,3.593830997,-29.94,-8.75,2949,0
COHM,11/1/16,-10.37956251,3.443391746,-21.05,1.22,2880,-10.68957985,3.518766957,-22.84,1.08,2880,0
COHM,12/1/16,-4.854684143,2.930069405,-13.94,7.12,2976,-5.170930772,2.97536874,-13.89,7.55,2976,0
COHM,1/1/17,-4.34433132,2.277161532,-10.71,3.49,2976,-4.503235888,2.280620654,-10.69,3.2,2976,0
COHM,2/1/17,-10.01562128,3.815690374,-18.4,0.57,2688,-10.34319196,3.90778313,-18.89,0.25,2688,0
COHM,3/1/17,-17.16070564,3.962055397,-26.77,-7.55,2976,-17.85702284,4.045747161,-28.16,-7.96,2976,0
COHM,4/1/17,-20.7559375,4.035056307,-31.24,-11.12,2880,-21.87977777,4.061401494,-32.22,-11.59,2880,0
COHM,5/1/17,-19.18783937,4.763416549,-29.76,-6.93,2976,-19.95464718,4.837264993,-30.34,-7.18,2976,0
COHM,6/1/17,-24.76874652,6.737713163,-36.63,-9.13,2880,-25.52141666,6.81753755,-37.4,-9.91,2880,0
COHM,7/1/17,-25.38682795,5.330948298,-36.64,-9.62,2976,-26.34863574,5.359619006,-37.18,-10.55,2976,0
COHM,8/1/17,-23.37946236,6.217518618,-34.26,-7.12,2976,-24.12508064,6.423832783,-34.86,-7.75,2976,0
COHM,9/1/17,-26.82513195,4.518557219,-36.78,-12.38,2880,-27.99134374,4.498790258,-37.42,-13.67,2880,0
COHM,10/1/17,-16.68292003,5.003473696,-30.64,-7.05,2976,-17.28302082,5.001910999,-31.07,-7.59,2976,0
COHM,11/1/17,-11.79333217,4.455717804,-20.98,-1.55,2875,-11.96619479,4.552983898,-21.72,-2.42,2875,0
COHM,12/1/17,-6.372029572,2.129884467,-13.63,4.4,2976,-6.366139111,2.124479313,-14,4.78,2976,0
COHM,1/1/18,-4.848276211,2.421896435,-12.63,0.9,2976,-5.09982863,2.553836526,-14.54,0.77,2976,0
COHM,2/1/18,-11.69040923,3.428369548,-23.21,-2.53,2688,-12.27490327,3.564957986,-25.06,-2.62,2688,0
COHM,3/1/18,-15.69721774,4.228904886,-28.55,-3.72,2976,-16.74165658,4.398577277,-30.27,-4.55,2976,0
COHM,4/1/18,-20.31604862,5.618806957,-33.49,-6.79,2880,-21.56518056,5.643369443,-34.16,-7.12,2880,0
COHM,5/1/18,-23.95362902,5.308432056,-32.92,-9.02,2976,-25.2036828,5.494522979,-34.03,-9.39,2976,0
COHM,6/1/18,-20.62300697,4.736886984,-30.93,-9.65,2880,-21.50749999,4.935450102,-32.41,-9.98,2880,0
COHM,7/1/18,-24.20629368,6.598505463,-38.7,-10.94,2976,-25.43048053,6.954915857,-40.87,-11.55,2976,0
COHM,8/1/18,-24.8151008,7.042005237,-34.82,-4.72,2976,-25.91275873,7.044161386,-35.68,-5.27,2976,0
COHM,9/1/18,-25.41392012,5.116321263,-36.49,-10.64,2880,-26.33088888,5.325175152,-38.32,-11.05,2880,0
COHM,10/1/18,-15.57726814,5.853215484,-27.98,-1.77,2976,-16.08364248,5.840145181,-28.97,-2.29,2976,0
COHM,11/1/18,-9.396107234,3.748529333,-20,0.67,2872,-9.528955431,3.759340089,-20.29,0.63,2872,0
COHM,12/1/18,-3.501405515,2.608698014,-10.53,4.21,2974,-3.48813047,2.528467112,-10.5,4.39,2974,0
COHM,1/1/19,-5.103494625,1.938279048,-9.72,0.6,2976,-5.158971773,2.005841475,-10.2,1.17,2976,0
COHM,2/1/19,-9.102087052,2.722178983,-17.26,-2.87,2688,-9.47213542,2.92909776,-18.14,-2.89,2688,0
COHM,3/1/19,-16.92799395,4.508299771,-27.37,-5.2,2976,-17.80279233,4.752485632,-28.74,-5.8,2976,0
COHM,4/1/19,-20.97668403,6.80264705,-35.12,-7.5,2880,-22.23622917,7.110993738,-36.25,-7.77,2880,0
COHM,5/1/19,-18.90732192,4.538726257,-27.76,-9.87,2976,-19.78199261,4.729851648,-28.6,-10.22,2976,0
COHM,6/1/19,-24.78653471,7.291261885,-39.64,-10.07,2880,-25.59869791,7.508176208,-40.46,-10.48,2880,0
COHM,7/1/19,-21.81465725,7.629294573,-34.8,-1.2,2976,-22.7575504,7.697668994,-35.86,-1.92,2976,0
COHM,8/1/19,-23.60089382,7.866506184,-39.22,-9.77,2976,-24.47532593,7.933315656,-39.67,-10.11,2976,0
COHM,9/1/19,-23.65408332,4.900540504,-32.77,-11.79,2880,-24.62562151,5.004683846,-34.03,-12.12,2880,0
COHM,10/1/19,-18.64244624,3.715164849,-27.01,-10.67,2976,-19.10658601,3.807512804,-27.94,-10.36,2976,0
COHM,11/1/19,-8.740788197,3.655541501,-18.4,-0.95,2880,-8.870090276,3.712645559,-18.24,-0.81,2880,0
COHM,12/1/19,-4.479515482,2.125991716,-10.06,2.98,2972,-4.64136272,2.124726701,-10,3.49,2972,0
COHM,1/1/20,-5.056216402,2.332265576,-11.55,0.8,2976,-5.274425407,2.343473559,-12.34,1.23,2976,0
COHM,2/1/20,-8.139730604,4.434301785,-21.54,3.78,2784,-8.727385052,4.568939784,-22.81,2.54,2784,0
COHM,3/1/20,-19.66263105,4.270533854,-32.02,-9.55,2976,-20.65102825,4.360024795,-33.6,-10.44,2976,0
COHM,4/1/20,-21.69307985,3.530180933,-30.09,-9.79,2880,-22.72231596,3.686607932,-32.34,-10.43,2880,0
COHM,5/1/20,-23.39370966,4.293818419,-32.52,-9.63,2976,-24.41458333,4.274016585,-33.05,-10.24,2976,0
COHM,6/1/20,-23.43191318,6.855639592,-38.71,-6.23,2880,-24.2843854,7.044183137,-39.64,-6.7,2880,0
COHM,7/1/20,-24.20088036,6.586668023,-36.15,-1.82,2976,-25.11299731,6.731339729,-37.31,-2.63,2976,0